[[{"header":{"parameterUnit":"m.s-1","parameterCategory":1,"la1":30.2991,"la2":30.254,"lo1":-89.0895,"lo2":-89.0444,"dy":0.0017,"dx":0.0017,"nx":28,"ny":28,"refTime":"2023-10-11T21:00:00:Z","depth":0,"parameterNumber":2,"parameterNumberName":"U-component_of_WINDS"},"data":[0,0,0,0,0,0,0,0,0,0,0,0,0,0,0,0,0,0,0,0,0,0,0,0,0,0,0,0,0,0,0,0,0,0,0,0,0,0,0,0,0,0,0,0,0,0,0,0,0,0,0,0,0,0,0,0,0,0,0.3932,0.3932,0,0.3894,0.3894,0.3893,0.3899,0.39,0.39,0.3901,0.3861,0.3859,0.3857,0,0,0,0,0,0,0,0,0,0,0,0,0,0.4009,0.4008,0.3932,0.3932,0.3931,0.3894,0.3894,0.3893,0.3899,0.39,0.39,0.3901,0.3861,0.3859,0.3857,0,0,0,0,0,0,0,0,0,0,0,0,0,0.3974,0.4007,0.3932,0.393,0.3929,0.3894,0.3894,0.3893,0.3899,0.39,0.3901,0.3901,0.3862,0.3859,0.3857,0.3822,0,0,0.3849,0.3848,0,0,0,0,0,0,0,0,0.3976,0.3971,0.3931,0.393,0.3929,0.3902,0.3906,0.3869,0.3898,0.391,0.3901,0.3902,0.3874,0.387,0.3861,0.382,0.3819,0.3849,0.3848,0.3847,0.3846,0,0,0,0,0,0,0,0.3978,0.3973,0.3917,0.393,0.3929,0.393,0.3926,0.3899,0.3887,0.3909,0.3909,0.3905,0.3873,0.3863,0.386,0.3818,0.3849,0.3847,0.3845,0.3844,0.3748,0.3747,0,0,0,0,0,0,0.3982,0.3975,0.3918,0.3916,0.3955,0.3928,0.3924,0.391,0.3887,0.3885,0.3904,0.3905,0.3867,0.3863,0.3859,0.3816,0.3847,0.3844,0.3843,0.3749,0.3747,0.3746,0,0,0,0,0,0,0.3983,0.3977,0.392,0.3946,0.3938,0.3926,0.391,0.3909,0.3899,0.3884,0.3881,0.3896,0.3868,0.3862,0.3832,0.3815,0.3843,0.3841,0.375,0.3748,0.3747,0.3732,0,0,0,0,0,0,0.3985,0.3977,0.3964,0.3945,0.3937,0.3893,0.3909,0.3907,0.3894,0.3896,0.3875,0.3873,0.3868,0.3835,0.3829,0.3812,0.3839,0.3751,0.3749,0.3747,0.3734,0.373,0.3727,0,0,0,0,0,0.3988,0.3961,0.3963,0.3956,0.392,0.3892,0.3888,0.3883,0.3893,0.3879,0.387,0.3874,0.3818,0.3832,0.3825,0.3807,0.3752,0.375,0.3748,0.3735,0.3731,0.3727,0,0,0,0,0,0,0.3977,0.3958,0.3961,0.3926,0.3911,0.3893,0.3876,0.3878,0.3859,0.3861,0.3856,0.3851,0.382,0.3811,0.3826,0.3773,0.3787,0.3783,0.378,0.3775,0.3772,0.3774,0.3837,0,0,0,0,0,0.3971,0.395,0.3935,0.3906,0.3898,0.3889,0.3876,0.3874,0.3858,0.3851,0.3839,0.3823,0.3802,0.3789,0.3768,0.3733,0.3729,0.3717,0.3714,0.3711,0.3707,0.3688,0.3683,0.3738,0.3738,0.3738,0,0,0.3957,0.3945,0.3932,0.3904,0.3891,0.387,0.3883,0.386,0.3843,0.3848,0.3818,0.3809,0.379,0.3757,0.3742,0.3748,0.3691,0.3708,0.3706,0.3704,0.3685,0.368,0.3675,0.3737,0.3737,0.3737,0,0,0.3921,0.391,0.3885,0.3873,0.3854,0.3848,0.3842,0.3825,0.3819,0.3789,0.3792,0.3773,0.3737,0.3724,0.3712,0.3673,0.3675,0.3667,0.3648,0.3629,0.3624,0.3621,0.3606,0.3601,0.3663,0.3663,0.3663,0,0.3907,0.3875,0.3871,0.3848,0.3835,0.3839,0.3813,0.3802,0.3778,0.3769,0.3777,0.3732,0.372,0.3684,0.3674,0.3665,0.3658,0.3668,0.3625,0.3621,0.3618,0.3604,0.3598,0.3662,0.3662,0.3662,0.3662,0,0.3857,0.3835,0.3817,0.3794,0.378,0.3755,0.3748,0.3734,0.3734,0.3727,0.3697,0.3683,0.366,0.3652,0.3651,0.3615,0.362,0.3627,0.364,0.3611,0.3598,0.3593,0.3661,0.3661,0.3661,0.3662,0,0,0.3812,0.3789,0.3782,0.3772,0.3752,0.3735,0.3711,0.3689,0.3677,0.3661,0.364,0.361,0.3617,0.3604,0.3602,0.3586,0.3555,0.3594,0.3594,0.3587,0.3515,0.3509,0.3503,0.3557,0.3556,0.3555,0.3516,0,0.3774,0.3731,0.3728,0.369,0.3669,0.3673,0.3652,0.3638,0.3631,0.3613,0.3605,0.3584,0.3595,0.3587,0.3571,0.3562,0.354,0.3565,0.3537,0.3536,0.3541,0.3496,0.349,0.3454,0.3511,0.351,0.351,0,0.3723,0.3706,0.3665,0.3649,0.3641,0.3622,0.3602,0.3584,0.3569,0.3565,0.3551,0.3552,0.3527,0.3543,0.3508,0.3525,0.3514,0.3508,0.3507,0.3503,0.352,0.349,0.3442,0.3436,0.3502,0.3502,0.3503,0,0.3693,0.366,0.3631,0.3623,0.3604,0.359,0.3582,0.3567,0.3554,0.3537,0.3529,0.3509,0.3498,0.3482,0.3477,0.3489,0.3443,0.3458,0.3439,0.3439,0.3428,0.3429,0.3376,0.3423,0.3423,0.3423,0.3423,0,0.365,0.3625,0.3618,0.36,0.3572,0.3569,0.3542,0.3534,0.3521,0.3502,0.3505,0.3487,0.3482,0.3463,0.3459,0.3432,0.3427,0.3423,0.3422,0.3422,0.3422,0.3414,0.3416,0.3421,0.3422,0.3422,0.3422,0,0.3611,0.3605,0.3575,0.356,0.3555,0.3535,0.3522,0.3505,0.35,0.3476,0.347,0.3461,0.3439,0.3433,0.3406,0.3404,0.3371,0.3373,0.3376,0.3376,0.3357,0.3358,0.3296,0.3287,0.334,0.334,0.3339,0,0.3583,0.3564,0.3548,0.3535,0.3526,0.3506,0.3493,0.349,0.3477,0.3458,0.3444,0.3422,0.3405,0.337,0.336,0.334,0.3341,0.3321,0.3338,0.3339,0.334,0.3341,0.3339,0.3317,0.3317,0.3316,0.3316,0,0.3535,0.3533,0.3515,0.3496,0.3481,0.3465,0.3451,0.344,0.3435,0.342,0.3398,0.3385,0.3358,0.3337,0.3317,0.3308,0.3311,0.3311,0.3305,0.3304,0.3307,0.3305,0.3366,0.3312,0.3312,0.3312,0.3313,0.3313,0.35,0.3484,0.3469,0.3449,0.3438,0.3424,0.3408,0.34,0.3382,0.336,0.336,0.3336,0.3321,0.3295,0.3285,0.3266,0.3272,0.3264,0.3262,0.326,0.3258,0.3311,0.3263,0.3263,0.3263,0.3263,0.3263,0,0.3451,0.3442,0.3424,0.3404,0.3388,0.3393,0.3377,0.3363,0.3342,0.3329,0.3312,0.3287,0.3266,0.3256,0.3236,0.3223,0.3223,0.3217,0.3218,0.3216,0.3254,0.326,0.3217,0.3217,0.3217,0.3217,0.3217,0.3217,0.3424,0.3396,0.3392,0.3359,0.3351,0.3327,0.3318,0.3305,0.3295,0.3266,0.325,0.3244,0.3231,0.321,0.3192,0.319,0.3182,0.3175,0.3173,0.3208,0.3213,0.3217,0.3223,0.3173,0.3173,0.3136,0.3136,0.3136]},{"header":{"parameterUnit":"m.s-1","parameterCategory":1,"la1":30.2991,"la2":30.254,"lo1":-89.0895,"lo2":-89.0444,"dy":0.0017,"dx":0.0017,"nx":28,"ny":28,"refTime":"2023-10-11T21:00:00:Z","depth":0,"parameterNumber":3,"parameterNumberName":"V-component_of_WINDS"},"data":[0,0,0,0,0,0,0,0,0,0,0,0,0,0,0,0,0,0,0,0,0,0,0,0,0,0,0,0,0,0,0,0,0,0,0,0,0,0,0,0,0,0,0,0,0,0,0,0,0,0,0,0,0,0,0,0,0,0,-5.0986,-5.0987,0,-5.1072,-5.1073,-5.1074,-5.1025,-5.1022,-5.102,-5.1018,-5.11,-5.1104,-5.1109,0,0,0,0,0,0,0,0,0,0,0,0,0,-5.0774,-5.0778,-5.0986,-5.0987,-5.0988,-5.1072,-5.1073,-5.1074,-5.1025,-5.1022,-5.1019,-5.1016,-5.1098,-5.1104,-5.1109,0,0,0,0,0,0,0,0,0,0,0,0,0,-5.0863,-5.0779,-5.0986,-5.0974,-5.0974,-5.1071,-5.1073,-5.1074,-5.1026,-5.1022,-5.1018,-5.1015,-5.1097,-5.1103,-5.111,-5.1222,0,0,-5.113,-5.1133,0,0,0,0,0,0,0,0,-5.0858,-5.0871,-5.0974,-5.0975,-5.0975,-5.1034,-5.1028,-5.1124,-5.1027,-5.1006,-5.1017,-5.1013,-5.108,-5.1088,-5.1112,-5.1226,-5.123,-5.113,-5.1134,-5.1137,-5.1139,0,0,0,0,0,0,0,-5.0852,-5.0867,-5.102,-5.0976,-5.0976,-5.0962,-5.0971,-5.1046,-5.1062,-5.1007,-5.1004,-5.1015,-5.108,-5.1106,-5.1114,-5.1231,-5.113,-5.1136,-5.114,-5.1143,-5.1441,-5.1445,0,0,0,0,0,0,-5.0847,-5.0862,-5.1017,-5.1022,-5.0907,-5.0969,-5.0979,-5.1018,-5.1061,-5.1064,-5.1018,-5.1012,-5.1096,-5.1106,-5.1116,-5.1251,-5.1137,-5.1144,-5.1147,-5.1437,-5.1442,-5.1446,0,0,0,0,0,0,-5.0843,-5.0862,-5.1013,-5.0941,-5.096,-5.0977,-5.1021,-5.1022,-5.1048,-5.1069,-5.1071,-5.1042,-5.1094,-5.1107,-5.1197,-5.1253,-5.1146,-5.1153,-5.1433,-5.1439,-5.1444,-5.1521,0,0,0,0,0,0,-5.0837,-5.086,-5.0905,-5.0943,-5.0964,-5.1094,-5.1025,-5.1026,-5.106,-5.1054,-5.1092,-5.1095,-5.1092,-5.1187,-5.1203,-5.126,-5.1158,-5.1428,-5.1435,-5.1442,-5.1513,-5.1529,-5.1542,0,0,0,0,0,-5.083,-5.0922,-5.0907,-5.0926,-5.102,-5.1098,-5.1109,-5.1105,-5.1065,-5.1109,-5.1122,-5.1094,-5.1244,-5.1197,-5.1214,-5.1274,-5.1424,-5.1433,-5.1442,-5.1507,-5.1526,-5.1542,0,0,0,0,0,0,-5.0887,-5.0926,-5.0911,-5.1018,-5.1055,-5.1089,-5.1144,-5.1125,-5.1173,-5.1165,-5.1156,-5.1165,-5.1259,-5.1275,-5.1221,-5.1385,-5.1327,-5.134,-5.1371,-5.1389,-5.1403,-5.1397,-5.1163,0,0,0,0,0,-5.0913,-5.0975,-5.1005,-5.1097,-5.1116,-5.1128,-5.1161,-5.1155,-5.1192,-5.1207,-5.1227,-5.1263,-5.1318,-5.1354,-5.1406,-5.1516,-5.1523,-5.1565,-5.158,-5.1591,-5.1602,-5.1661,-5.168,-5.1475,-5.1475,-5.1475,0,0,-5.0966,-5.0995,-5.1034,-5.1109,-5.1137,-5.12,-5.1141,-5.1209,-5.1255,-5.1217,-5.1303,-5.1319,-5.1358,-5.1459,-5.1503,-5.1475,-5.166,-5.1603,-5.1612,-5.1616,-5.1672,-5.1691,-5.1709,-5.1481,-5.148,-5.1479,0,0,-5.1094,-5.1123,-5.1203,-5.1233,-5.1276,-5.1283,-5.1302,-5.134,-5.135,-5.1437,-5.1409,-5.1462,-5.1558,-5.1587,-5.1614,-5.1754,-5.1729,-5.1771,-5.1845,-5.1902,-5.1918,-5.1933,-5.1982,-5.2,-5.1782,-5.1782,-5.1782,0,-5.1154,-5.1249,-5.1245,-5.1317,-5.135,-5.132,-5.14,-5.1428,-5.1486,-5.1509,-5.1477,-5.1596,-5.162,-5.1727,-5.1761,-5.1784,-5.1805,-5.1766,-5.1917,-5.1931,-5.1944,-5.1991,-5.201,-5.1787,-5.1786,-5.1786,-5.1785,0,-5.132,-5.1387,-5.1445,-5.1505,-5.1544,-5.1619,-5.1625,-5.1666,-5.1656,-5.1666,-5.1754,-5.1782,-5.184,-5.1864,-5.1855,-5.1969,-5.195,-5.1918,-5.186,-5.1969,-5.2013,-5.2031,-5.1794,-5.1792,-5.1791,-5.1789,0,0,-5.1487,-5.1544,-5.1566,-5.1592,-5.1638,-5.1689,-5.1762,-5.182,-5.1854,-5.1895,-5.1955,-5.2037,-5.2007,-5.2038,-5.2032,-5.2082,-5.2191,-5.2043,-5.2044,-5.2069,-5.2318,-5.2342,-5.2363,-5.2175,-5.2178,-5.2181,-5.2314,0,-5.1618,-5.1749,-5.1748,-5.1867,-5.1928,-5.1901,-5.1964,-5.1998,-5.201,-5.2061,-5.2072,-5.213,-5.2087,-5.2105,-5.2154,-5.2167,-5.224,-5.2158,-5.2229,-5.2232,-5.222,-5.2386,-5.2412,-5.2537,-5.2332,-5.2335,-5.2337,0,-5.1789,-5.1838,-5.1964,-5.2002,-5.2028,-5.2085,-5.2138,-5.2188,-5.2226,-5.223,-5.2266,-5.2251,-5.2324,-5.2264,-5.2363,-5.2307,-5.2336,-5.2347,-5.2351,-5.2358,-5.2291,-5.2396,-5.2576,-5.2595,-5.2364,-5.2362,-5.236,0,-5.1898,-5.1995,-5.2083,-5.2106,-5.2153,-5.2194,-5.2215,-5.2249,-5.2284,-5.233,-5.2352,-5.2405,-5.2433,-5.2474,-5.2473,-5.243,-5.2573,-5.2514,-5.2578,-5.2578,-5.2609,-5.2607,-5.2796,-5.2628,-5.2628,-5.2628,-5.2627,0,-5.2044,-5.2123,-5.2133,-5.2187,-5.2274,-5.2271,-5.2356,-5.2372,-5.2403,-5.2459,-5.2438,-5.249,-5.2487,-5.2539,-5.2539,-5.2621,-5.2634,-5.2638,-5.2637,-5.264,-5.264,-5.2659,-5.265,-5.2633,-5.2632,-5.2631,-5.263,0,-5.218,-5.219,-5.2285,-5.2322,-5.2333,-5.2395,-5.2425,-5.2476,-5.2485,-5.2556,-5.2572,-5.2586,-5.2647,-5.2651,-5.272,-5.272,-5.282,-5.2809,-5.2808,-5.2805,-5.2869,-5.2863,-5.3077,-5.3104,-5.292,-5.2921,-5.2923,0,-5.2273,-5.2333,-5.2377,-5.2414,-5.2438,-5.2497,-5.2533,-5.2532,-5.257,-5.2618,-5.2663,-5.2722,-5.2769,-5.2867,-5.2882,-5.2935,-5.2925,-5.2996,-5.2933,-5.2934,-5.2926,-5.2922,-5.2928,-5.3009,-5.3011,-5.3012,-5.3014,0,-5.2437,-5.2439,-5.2493,-5.2549,-5.2593,-5.2637,-5.2677,-5.2708,-5.2712,-5.2755,-5.2818,-5.2855,-5.2927,-5.2985,-5.3037,-5.3056,-5.3035,-5.3034,-5.3051,-5.3055,-5.3051,-5.3054,-5.2841,-5.3029,-5.3027,-5.3026,-5.3025,-5.3025,-5.2554,-5.2606,-5.2645,-5.2706,-5.2737,-5.2775,-5.2825,-5.2841,-5.2895,-5.2954,-5.295,-5.3019,-5.3055,-5.3123,-5.3146,-5.3199,-5.3174,-5.32,-5.3206,-5.3213,-5.3219,-5.3044,-5.3208,-5.3208,-5.3207,-5.3207,-5.3207,0,-5.2716,-5.274,-5.2796,-5.2855,-5.2902,-5.2881,-5.2925,-5.2965,-5.3027,-5.3063,-5.3111,-5.3183,-5.3239,-5.3259,-5.3314,-5.3353,-5.3344,-5.3367,-5.3364,-5.3368,-5.3238,-5.3218,-5.3373,-5.3373,-5.3373,-5.3373,-5.3373,-5.3372,-5.2806,-5.2893,-5.29,-5.3002,-5.3025,-5.3095,-5.3121,-5.3156,-5.3185,-5.3267,-5.3315,-5.3328,-5.3357,-5.3414,-5.3465,-5.3469,-5.349,-5.3516,-5.3516,-5.3394,-5.3378,-5.3362,-5.3342,-5.3521,-5.3521,-5.3642,-5.3643,-5.3644]}]]